Regional Weather Roundup
Issued by NWS Portland, ME

Current Version | Previous Version | Text Only | Print | Product List | Glossary Off
Versions: 1 2 3 4 5 6 7 8 9 10 11 12 13 14 15 16 17 18 19 20 21 22 23 24 25 26 27 28 29 30 31 32 33 34 35 36 37 38 39 40 41 42 43 44 45 46 47 48 49 50
376 ASUS41 KGYX 201610 RWRGYX WEATHER ROUNDUP FOR MAINE AND NEW HAMPSHIRE NATIONAL WEATHER SERVICE GRAY ME 1200 PM EDT WED JUN 20 2018 MEZ002-005-006-010-012-015-018-020-021-024-026-027-029-201700- MAINE CITY SKY/WX TMP DP RH WIND PRES REMARKS PORTLAND PTSUNNY 77 48 35 SW9 29.82F SANFORD FAIR 77 49 37 VRB6G20 29.83F BAR HARBOR FAIR 76 48 37 SW10 29.79F WISCASSET FAIR 76 42 29 W10G24 29.83F ROCKLAND FAIR 76 45 33 SW13G20 29.81F FRYEBURG FAIR 78 48 34 SW9 29.81F LEWISTONAUBURN FAIR 77 48 35 VRB7 29.81F AUGUSTA FAIR 77 42 28 SW13G18 29.81F WATERVILLE FAIR 76 45 33 SW9G18 29.77F BANGOR FAIR 77 48 35 SW9G17 29.78F GREENVILLE N/A 73 47 39 W8G16 29.76F MILLINOCKET FAIR 76 47 35 W10G17 29.73F HOULTON FAIR 77 51 40 W13G26 29.68F PRESQUE ISLE PTSUNNY 74 48 39 W13G21 29.65F FRENCHVILLE FAIR 73 49 42 SW20 29.61F CARIBOU CLOUDY 71 47 42 SW13 29.63F $$ NHZ002-005-008-009-011-012-014-201700- NEW HAMPSHIRE CITY SKY/WX TMP DP RH WIND PRES REMARKS PORTSMOUTH PTSUNNY 79 46 30 SW8 29.82F ROCHESTER FAIR 78 49 35 CALM 29.83F NASHUA FAIR 76 52 43 VRB6 29.85F MANCHESTER PTSUNNY 78 47 33 SW9 29.83F CONCORD FAIR 79 51 37 SW8 29.84F LACONIA FAIR 75 49 39 SW12 29.84F PLYMOUTH FAIR 75 45 34 W6 29.83F BERLIN FAIR 72 49 44 NW9 29.84F WHITEFIELD FAIR 72 48 42 W7 29.85F JAFFREY FAIR 74 48 39 SW8 29.89F KEENE FAIR 77 49 37 VRB5 29.87F LEBANON FAIR 76 48 37 S10 29.84F MT WASHINGTON PTSUNNY 48 34 57 W33G39 N/A $$ VTZ005-007-008-201700- VERMONT CITY SKY/WX TMP DP RH WIND PRES REMARKS ST JOHNSBURY N/A 74 49 41 MISG 29.82F MONTPELIER FAIR 72 51 47 VRB6 29.90S BURLINGTON PTSUNNY 75 49 39 S7 29.84F $$ MAZ007-012-024-CTZ003-RIZ002-NYZ038-NYZ072-201700- SOUTHERN NEW ENGLAND AND NY CITY SKY/WX TMP DP RH WIND PRES REMARKS BOSTON PTSUNNY 74 51 44 SE7 29.85F WORCESTER FAIR 71 51 49 MISG 29.89F NANTUCKET FAIR 68 63 84 S6 29.90F PROVIDENCE FAIR 77 58 51 S9 29.87F HARTFORD PTSUNNY 77 55 46 SW7 29.88F ALBANY CLOUDY 73 53 49 S6 29.89F NEW YORK CITY PTSUNNY 76 54 46 NE7 29.87F $$ ANZ081-ANZ082-ANZ150-NHZ014-MEZ023>029-201700- COASTAL MARINE OBSERVATIONS STATION/POSITION TIME TEMP WIND PRES WAVE AIR SEA DIR/SP/G HT/PER (UTC) (F) (DEG/KT/KT) (MB) (FT/S) MOUNT DESERT ROC 1600 56 190/ 13/ 14 1010.3F MATINICUS ROCK 1600 58 230/ 19/ 19 1009.9F ISLE OF SHOALS 1600 68 160/ 16/ 17 1010.0F JEFFREYS LEDGE 1536 60 N/A 2/ 7 $$ .............KEY.............. WCI - WIND CHILL TC - TEMPERATURE IN CELSIUS VSB - VISIBILITY IN MILES HX - HEAT INDEX FAIR- INDICATES FEW OR NO CLOUDS BELOW 12,000 FT, WITH NO SIGNIFICANT WEATHER AND/OR OBSTRUCTIONS TO VISIBILITY.

USA.gov is the U.S. government's official web portal to all federal, state and local government web resources and services.